User: anonymous   Login
Location: Gro�sch�nbrunn
(49.5760°N, 11.8868°E)
Time: 04:39:22
(UTC+00:00)
Language:

CZ-4 R/B - Orbit

View from above orbital plane
View from above orbital plane
View from above satellite
View from above satellite

Ground track
Ground track

The orbit data is extracted from the following two-line orbital elements,

1 29507U 06046C   20337.79477995  .00000611  00000-0  52259-4 0  9996
2 29507  97.7197 358.9503 0047268 322.0024  37.7868 15.00584500770661
Epoch (UTC): 02 December 2020 19:04:28
Eccentricity: 0.0047268
inclination: 97.7197°
perigee height: 532 km
apogee height: 598 km
right ascension of ascending node: 358.9503°
argument of perigee: 322.0024°
revolutions per day: 15.00584500
mean anomaly at epoch: 37.7868°
orbit number at epoch: 77066

The dashed part of the orbit path shows where the satellite is in the earth's shadow,  

DLR